Regional Weather Roundup
Issued by NWS

Home | Current Version | Previous Version | Graphics & Text | Print | Product List | Glossary On
Versions: 1 2 3 4 5 6 7 8 9 10 11 12 13 14 15 16 17 18 19 20 21 22 23 24 25 26 27 28 29 30 31 32 33 34 35 36 37 38 39 40 41 42 43 44 45 46 47 48 49 50
000
ASUS43 KLMK 250002
RWRKY
KENTUCKY REGIONAL WEATHER ROUNDUP
NATIONAL WEATHER SERVICE LOUISVILLE KY
800 PM EDT WED MAY 24 2017

NOTE "FAIR" INDICATES FEW OR NO CLOUDS BELOW 12,000 FEET
WITH NO SIGNIFICANT WEATHER AND/OR OBSTRUCTIONS TO VISIBILITY.

KYZ001>023-026-027-061>063-070>075-250100-
WESTERN AND SOUTH CENTRAL KENTUCKY

CITY           SKY/WX    TMP DP  RH WIND       PRES   REMARKS
PADUCAH        SUNNY     66  46  48 NW7       29.53R
HENDERSON      CLOUDY    59  55  87 NW6       29.52R
OWENSBORO      CLOUDY    59  54  83 NW10      29.50S
HOPKINSVILLE   HVY RAIN  61  55  82 N8        29.53R
BOWLING GREEN  CLOUDY    59  55  87 W7        29.51S
GLASGOW        NOT AVBL
$$

KYZ024-025-028>034-038-045-046-053-250100-
NORTH CENTRAL KENTUCKY

CITY           SKY/WX    TMP DP  RH WIND       PRES   REMARKS
LOUISVILLE/SDF RAIN      60  58  92 W15       29.42R
LOUISVILLE/LOU RAIN      60  59  96 W10       29.42R FOG
FORT KNOX      RAIN      57  57  99 W12       29.44R FOG
$$

KYZ035>037-039>044-047>052-055>060-089>105-250100-
NORTHEAST KENTUCKY

CITY           SKY/WX    TMP DP  RH WIND       PRES   REMARKS
LEXINGTON      HVY RAIN  60  58  92 W8        29.37R VSB 1
COVINGTON      HVY RAIN  60  58  92 NW9       29.37R FOG
FRANKFORT      CLOUDY    62  57  83 W7        29.36R
$$

KYZ054-064>069-076>088-106>120-250100-
SOUTHEAST KENTUCKY

CITY           SKY/WX    TMP DP  RH WIND       PRES   REMARKS
JACKSON        MOCLDY    64  57  78 VRB3      29.42R
LONDON         MOCLDY    61  52  72 W18G28    29.47R
SOMERSET       NOT AVBL
MIDDLESBORO    CLOUDY    64  52  65 W9G20     29.49R
MONTICELLO     CLOUDY    57  54  89 W21G30    29.51R
$$





USA.gov is the U.S. government's official web portal to all federal, state and local government web resources and services.